South Lake Tahoe, CA

8:31 AM PDT on July 22, 2017 (GMT -0700)
Lake Tahoe

Weather History for KTVL - January, 2012

Change the Weather History Date:

Friday, January 27, 2012

  Actual Average Record
Temperature  
Mean Temperature 30 °F 30 °F  
Max Temperature 42 °F 43 °F 57 °F (1988)
Min Temperature 18 °F 16 °F -5 °F (1979)
Degree Days  
Heating Degree Days 35 35  
Month to date heating degree days 819 952  
Since 1 July heating degree days 3619 4135  
Cooling Degree Days 0 0  
Month to date cooling degree days 0 0  
Year to date cooling degree days 0 0  
Moisture  
Dew Point 22 °F    
Average Humidity 61    
Maximum Humidity 85    
Minimum Humidity 37    
Precipitation  
Precipitation 0.00 in - 2.04 in (1956)
Month to date precipitation 3.88  
Year to date precipitation 3.88  
Sea Level Pressure  
Sea Level Pressure 30.33 in    
Wind  
Wind Speed 2 mph (SE)    
Max Wind Speed 14 mph    
Max Gust Speed 22 mph    
Visibility 10 miles    
Events      
T = Trace of Precipitation, MM = Missing Value Source: NWS Daily Summary

Daily Weather History Graph

Daily Weather History Graph

Search for Another Location

Airport or City:

Trip Planner

Search our weather history database for the weather conditions in past years. The results will help you decide how hot, cold, wet, or windy it might be!

Date:

Astronomy

Jan. 27, 2012 Rise Set
Actual Time 7:10 AM PST 5:15 PM PST
Civil Twilight 6:42 AM PST 5:43 PM PST
Nautical Twilight 6:10 AM PST 6:15 PM PST
Astronomical Twilight 5:38 AM PST 6:47 PM PST
Moon 9:10 AM PST (1/27) 10:07 PM PST (1/27)
Length of Visible Light 11h 01m
Length of Day
10h 04m
Waxing Crescent, 20% of the Moon is Illuminated
Jan 27
Waxing Crescent
Jan 30
First Quarter
Feb 7
Full
Feb 14
Last Quarter
Feb 21
New

Hourly Weather History & Observations

Time (PST) Temp. Windchill Dew Point Humidity Pressure Visibility Wind Dir Wind Speed Gust Speed Precip Events Conditions
12:15 AM 30.2 °F - 26.6 °F 86% 30.29 in 8.0 mi Calm Calm - N/A   Mostly Cloudy
12:44 AM 30.2 °F - 26.6 °F 86% 30.29 in 10.0 mi Calm Calm - N/A   Scattered Clouds
12:53 AM 30.0 °F - 26.1 °F 85% 30.26 in 9.0 mi Calm Calm - N/A   Scattered Clouds
1:53 AM 34.0 °F 28.8 °F 27.0 °F 75% 30.25 in 10.0 mi ESE 5.8 mph - N/A   Clear
2:53 AM 30.0 °F - 26.1 °F 85% 30.26 in 10.0 mi Calm Calm - N/A   Clear
3:53 AM 34.0 °F 28.0 °F 26.1 °F 73% 30.25 in 10.0 mi Variable 6.9 mph - N/A   Clear
4:53 AM 35.1 °F 28.6 °F 25.0 °F 67% 30.24 in 10.0 mi East 8.1 mph 17.3 mph N/A   Clear
5:53 AM 35.1 °F 28.6 °F 23.0 °F 61% 30.27 in 10.0 mi NE 8.1 mph - N/A   Clear
6:53 AM 30.9 °F 22.8 °F 23.0 °F 72% 30.32 in 10.0 mi South 9.2 mph - N/A   Clear
7:53 AM 26.1 °F 20.5 °F 21.0 °F 81% 30.38 in 10.0 mi South 4.6 mph - N/A   Clear
8:53 AM 28.9 °F - 24.1 °F 82% 30.38 in 10.0 mi Calm Calm - N/A   Clear
9:53 AM 35.1 °F 30.1 °F 26.1 °F 70% 30.36 in 10.0 mi South 5.8 mph - N/A   Clear
10:53 AM 39.0 °F - 23.0 °F 53% 30.34 in 10.0 mi Calm Calm - N/A   Clear
11:53 AM 39.0 °F 34.0 °F 21.0 °F 49% 30.33 in 10.0 mi NE 6.9 mph - N/A   Clear
12:53 PM 41.0 °F 39.0 °F 19.0 °F 41% 30.31 in 10.0 mi Variable 3.5 mph - N/A   Clear
1:53 PM 41.0 °F - 18.0 °F 40% 30.28 in 10.0 mi Calm Calm - N/A   Clear
2:53 PM 39.9 °F - 16.0 °F 38% 30.32 in 10.0 mi Calm Calm - N/A   Clear
3:53 PM 37.9 °F - 18.0 °F 45% 30.30 in 10.0 mi Calm Calm - N/A   Clear
4:53 PM 33.1 °F - 21.0 °F 61% 30.32 in 10.0 mi Calm Calm - N/A   Clear
5:53 PM 30.0 °F - 19.9 °F 66% 30.35 in 10.0 mi Calm Calm - N/A   Clear
6:53 PM 28.4 °F - 19.4 °F 69% 30.36 in 10.0 mi Calm Calm - N/A   Clear
7:53 PM 26.1 °F - 19.0 °F 75% 30.45 in 10.0 mi Calm Calm - N/A   Clear
8:53 PM 24.1 °F - 18.0 °F 77% 30.45 in 10.0 mi Calm Calm - N/A   Clear
9:53 PM 21.9 °F - 16.0 °F 78% 30.44 in 10.0 mi Calm Calm - N/A   Clear
10:53 PM 21.0 °F - 16.0 °F 81% 30.43 in 10.0 mi Calm Calm - N/A   Clear
11:53 PM 19.9 °F - 15.1 °F 81% 30.43 in 9.0 mi Calm Calm - N/A   Clear